Showing default

GGSE 3, 1292

Orbit data source: Space-Track

GGSE 3, 1292 is an American payload satellite in LEO that was launched on Tue, 09 Mar 1965 UTC via a THOR SLV-2 AGENA D launch vehicle from the Air Force Western Test Range (AFWTR). Payload-class satellites include a variety of spacecraft equipped with specific instruments for various scientific and technological missions. These include communications satellites like Starlink; space stations such as the ISS; scientific satellites like the Hubble; Earth observation satellites from companies like Planet Labs, Umbra, and HawkEye 360; GPS; miniature CubeSats for education and research; and military/defense satellites.

Loading next visibility...
Identifier
1292, 1965-016C
Orbit
LEO
Last TLE update
5 hours ago
Origin
Manufacturer
NRL
Mission
Defense Technology
Bus & Motor
NRL 24", Unknown motor
Mass
59 kg wet, 59 kg dry
Launch date (UTC)
1965-03-09 (60 years ago)
Launch vehicle
THOR SLV-2 AGENA D
Launch site
Air Force Western Test Range (AFWTR)
Object type
Payload
Rocket body
Debris
Shape & HBR
Sphere + 3 Ant, 31 m
Radar Cross Section
2.515 m², Medium (>0.1 m² and < 1m²)

Expand to show TLE details & history

TLE from 5 hours ago
0 GGSE 3
1  1292U 65016C   25182.15491437  .00000082  00000-0  89352-4 0  9995
2  1292  70.0779 346.2287 0017836  50.4034 309.8646 14.01436153 75881
Epoch: 2025-07-01T03:43Z
TLE epoch observation values (Epoch: 2025-07-01T03:43:04.601Z)
Latitude
-0.00008°
Longitude
11.00507°
Altitude
882.854 km
Speed
7.415 km/s
True Right ascension
23h 04m 54s
True Declination
0° 00' 00"
Sunlit
Object was in daylight at epoch
Visualization orbit readout
Latitude
-67.36023°
Longitude
-109.59257°
Altitude
925.048 km
Speed
7.383 km/s
Apparent Right ascension
10h 13m 28s
Apparent Declination
-65° 19' 31"
Sunlit
Object is in full shadow
Visualization observer readout
Local Sidereal Time
20:00:34
Azimuth
205.816° SW
Elevation
-58.312°
Doppler factor
1
Orbital elements
Apogee altitude
899.814 km
Perigee altitude
873.898 km
Semi-major axis
7,264.993 km
Eccentricity
0.00178
Inclination
70.0779°
RAAN
346.2287°
Arg. of periapsis
50.4034°
True anomaly
Unknown
Mean anomaly
309.8646°
Eccentric anomaly
Unknown
Mean motion
3.50502 °/min
Orbital period
102.71 mins
BSTAR
0.000089352
Loading maneuver chart data...
Loading SW <> Apogee altitude chart data...
Loading historical data...
Loading historical data...
Loading historical data...
Loading historical data...
Loading historical data...
Loading historical data...
Loading historical data...

GGSE 3 Visibility forecast

Observer location: undefined°, undefined°

Span
Click to sort rows by Start time (UTC) header in descending order
Start Az.
Max El. time (UTC)
Max El. Az.
Max El.
End time (UTC)
End Az.
11 mins2025-07-01 12:23:27.675Z199.836° SSW2025-07-01 12:29:27.675Z53.327° ENE44.363°2025-07-01 12:34:27.675Z25.968° NE
5 mins2025-07-01 14:13:27.675Z293.288° NW2025-07-01 14:15:27.675Z317.525° NNW15.777°2025-07-01 14:18:27.675Z349.463° N
10 mins2025-07-01 21:24:27.675Z352.025° N2025-07-01 21:28:27.675Z47.77° ENE35.21°2025-07-01 21:34:27.675Z132.609° SE
8 mins2025-07-01 23:10:27.675Z300.719° NW2025-07-01 23:13:27.675Z261.895° W23.533°2025-07-01 23:18:27.675Z203.113° SW
|